Location: Kennington
(51.1500°N, 0.8833°E)
Time: 11:41:30
(UTC+00:00)

CZ-4B R/B - Pass Details

Date: 21 September 2020
Orbit: 703 x 802 km, 98.9° (Epoch: 31 October)

Event Time Altitude Azimuth Distance (km) Brightness Sun altitude
Rises 03:31:00 0° 9° (N) 3,217 7.3 -20.4°
Reaches altitude 10° 03:33:29 10° 359° (N) 2,304 6.3 -20.1°
Maximum altitude 03:37:54 31° 299° (WNW) 1,335 4.4 -19.5°
Enters shadow 03:38:40 30° 282° (WNW) 1,377 4.4 -19.4°
